1292284830687,89.5448
1292284890687,89.8675
1292284950687,89.1511
1292285010687,89.7469
1292285070687,89.4875
1292285130687,89.9015
1292285190687,89.7756
1292285250687,89.3319
1292285310687,89.8098
1292285370687,89.6405
1292285430687,89.6175
1292285490687,89.4374
1292285550687,89.6587
1292285610687,89.6586
1292285670687,89.7276
1292285730687,89.7906
1292285790687,89.2879
1292285850687,89.8585
1292285910687,89.4996
1292285970687,89.6507
1292286030687,89.5107
1292286090687,89.5890
1292286150687,89.5743
1292286210687,89.4040
1292286270687,89.4089
1292286330687,90.0733
1292286390687,89.8429
1292286450687,89.6770
1292286510687,89.6584
1292286570687,89.8922
1292286630687,89.5495
1292286690687,89.2689
1292286750687,89.3446
1292286810687,89.6743
1292286870687,89.2547
1292286930687,89.8972
1292286990687,89.9268
1292287050687,89.7246
1292287110687,89.7270
1292287170687,89.9081
1292287230687,89.6201
1292287290687,89.5912
1292287350687,89.7606
1292287410687,89.4453
1292287470687,89.7067
1292287530687,89.5307
1292287590687,89.6446
1292287650687,89.8692
1292287710687,89.4017
1292287770687,89.8295
1292287830687,89.6954
1292287890687,89.8180
1292287950687,89.6516
1292288010687,89.7701
1292288070687,89.5200
1292288130687,89.6418
1292288190687,90.0287
1292288250687,89.9683
1292288310687,89.7456
1292288370687,89.8409
1292288430697,90.1139
1292288490697,89.8291
1292288550697,89.9524
1292288610697,89.4120
1292288670697,89.7631
1292288730697,89.8643
1292288790697,90.2595
1292288850697,89.7602
1292288910697,89.9170
1292288970697,90.0289
1292289030697,89.5643
1292289090697,90.0024
1292289150697,89.9603
1292289210697,90.0694
1292289270697,90.0361
1292289330697,89.6624
1292289390697,90.0281
1292289450697,89.7128
1292289510697,89.9380
1292289570697,89.6861
1292289630697,89.8798
1292289690697,89.9770
1292289750697,90.1079
1292289810697,90.0816
1292289870697,89.5702
1292289930697,89.8818
1292289990697,89.5053
1292290050697,89.8925
1292290110697,89.8432
1292290170697,89.8128
1292290230697,89.9711
1292290290697,89.9236
1292290350697,90.5481
1292290410697,90.5018
1292290470697,90.2551
1292290530697,89.8514
1292290590697,90.0739
1292290650697,90.2474
1292290710697,89.9918
1292290770697,90.0708
1292290830697,90.1319
1292290890697,90.1531
1292290950697,90.1125
1292291010697,89.9752
1292291070697,90.0655
1292291130697,90.1962
1292291190697,90.3445
1292291250697,90.1641
1292291310697,90.2246
1292291370697,89.8691
1292291430697,90.0430
1292291490697,89.9232
1292291550697,89.8185
1292291610697,90.1823
1292291670697,90.5303
1292291730697,90.2990
1292291790697,90.1697
1292291850697,89.9573
1292291910697,90.4126
1292291970697,90.1949
1292292030707,89.6920
1292292090707,90.1770
1292292150707,89.8191
1292292210707,90.0464
1292292270707,90.5502
1292292330707,90.0703
1292292390707,90.3260
1292292450707,90.3091
1292292510707,89.9245
1292292570707,89.9338
1292292630707,89.9054
1292292690707,90.3485
1292292750707,90.5626
1292292810707,90.2893
1292292870707,90.5651
1292292930707,90.2584
1292292990707,90.6669
1292293050707,90.1884
1292293110707,90.5474
1292293170707,90.4634
1292293230707,90.2804
1292293290707,90.1464
1292293350707,90.5020
1292293410707,90.5395
1292293470707,90.4389
1292293530707,90.6952
1292293590707,90.2272
1292293650707,90.0958
1292293710707,90.2132
1292293770707,90.0676
1292293830707,90.4092
1292293890707,90.6609
1292293950707,90.3098
1292294010707,90.5031
1292294070707,89.7812
1292294130707,90.5551
1292294190707,89.8102
1292294250707,90.7707
1292294310707,90.2576
1292294370707,90.7199
1292294430707,90.5404
1292294490707,90.1497
1292294550707,90.5073
1292294610707,90.2081
1292294670707,90.8717
1292294730707,90.4239
1292294790707,90.5980
1292294850707,90.3745
1292294910707,90.2565
1292294970707,90.5255
1292295030707,90.3485
1292295090707,90.6621
1292295150707,90.4016
1292295210707,91.2408
1292295270707,90.6800
1292295330707,90.4871
1292295390707,90.2778
1292295450707,90.6961
1292295510707,90.7312
1292295570707,90.5795
1292295630717,90.7246
1292295690717,90.7492
1292295750717,90.8388
1292295810717,90.1297
1292295870717,90.0766
1292295930717,90.0833
1292295990717,90.5313
1292296050717,90.7186
1292296110717,90.4957
1292296170717,90.8372
1292296230717,90.6146
1292296290717,90.0991
1292296830717,90.4972
1292296890717,90.3210
1292296950717,90.5092
1292297010717,90.6161
1292297070717,90.8913
1292297130717,90.5813
1292297190717,90.2584
1292297250717,90.6146
1292297310717,90.5840
1292297370717,90.4344
1292297430717,90.4073
1292297490717,90.6544
1292297550717,90.3640
1292297610717,90.4031
1292297670717,90.5731
1292297730717,90.8261
1292297790717,90.5865
1292297850717,90.4120
1292297910717,90.5914
1292297970717,90.7172
1292298030717,90.8478
1292298090717,90.3275
1292298150717,90.5723
1292298210717,90.7952
1292298270717,90.4642
1292298330717,90.8561
1292298390717,90.5186
1292298450717,90.3855
1292298510717,90.9077
1292298570717,90.7494
1292298630717,90.5794
1292298690717,90.9265
1292298750717,90.7969
1292298810717,90.5705
1292298870717,90.7697
1292298930717,90.8413
1292298990717,90.8217
1292299050717,90.6789
1292299110717,90.5864
1292299170717,90.2624
1292299230727,90.8713
1292299290727,90.8812
1292299350727,90.4990
1292299410727,90.1195
1292299470727,90.5135
1292299530727,90.3128
1292299590727,90.8523
1292299650727,90.4846
1292299710727,90.2244
1292299770727,90.3862
1292299830727,90.3559
1292299890727,90.0952
1292299950727,90.3141
1292300010727,90.1904
1292300070727,90.4541
1292300130727,90.4001
1292300190727,89.6468
1292300250727,90.4526
1292300310727,90.0818
1292300370727,90.1958
1292300430727,90.3246
1292300490727,90.3666
1292300550727,90.4119
1292300610727,90.3537
1292300670727,90.3497
1292300730727,90.2724
1292300790727,90.1177
1292300850727,90.1401
1292300910727,90.1829
1292300970727,89.9514
1292301030727,89.8872
1292301090727,90.2781
1292301150727,90.1148
1292301210727,90.1921
1292301270727,90.1508
1292301330727,90.3029
1292301390727,90.1416
1292301450727,89.8695
1292301510727,90.3225
1292301570727,89.8708
1292301630727,89.9800
1292301690727,90.0906
1292301750727,89.7385
1292301810727,90.3274
1292301870727,89.8080
1292301930727,90.0327
1292301990727,89.9043
1292302050727,90.0652
1292302110727,90.2784
1292302170727,89.9633
1292302230727,90.1367
1292302290727,90.1282
1292302350727,90.1331
1292302410727,89.8486
1292302470727,89.8958
1292302530727,90.1716
1292302590727,89.5292
1292302650727,89.8297
1292302710727,89.5169
1292302770727,89.6820
1292302830737,89.5247
1292302890737,89.9752
1292302950737,90.3057
1292303010737,90.1849
1292303070737,89.7203
1292303130737,89.5785
1292303190737,89.6841
1292303250737,89.9651
1292303310737,89.8378
1292303370737,89.9851
1292303430737,89.8837
1292303490737,89.5075
1292303550737,89.4133
1292303610737,89.4207
1292303670737,89.3797
1292303730737,89.0561
1292303790737,89.4983
1292303850737,89.6093
1292303910737,89.9590
1292303970737,89.4609
1292304030737,89.4677
1292304090737,89.5924
1292304150737,89.3690
1292304210737,89.5295
1292304270737,89.0580
1292304330737,89.3751
1292304390737,89.0754
1292304450737,89.6596
1292304510737,89.6277
1292304570737,89.3426
1292304630737,89.8530
1292304690737,89.2187
1292304750737,89.4606
1292304810737,89.4551
1292304870737,89.6513
1292304930737,89.4167
1292304990737,89.6020
1292305050737,89.5963
1292305110737,88.9805
1292305170737,89.4951
1292305230737,89.5896
1292305290737,89.6356
1292305350737,89.6152
1292305410737,89.6069
1292305470737,89.3105
1292305530737,89.4283
1292305590737,89.5275
1292305650737,89.4329
1292305710737,89.4596
1292305770737,89.0933
1292305830737,89.5105
1292305890737,88.9803
1292305950737,89.5107
1292306010737,89.7389
1292306070737,89.3588
1292306130737,90.0344
1292306190737,89.3725
1292306250737,89.0522
1292306310737,89.7586
1292306370737,89.6814
1292306430747,89.3604
1292306490747,89.5341
1292306550747,89.9366
1292306610747,89.4390
1292306670747,89.2079
1292306730747,89.6476
1292306790747,89.2073
1292306850747,89.4063
1292306910747,89.5136
1292306970747,89.7581
1292307030747,89.5047
1292307090747,89.4763
1292307150747,89.5940
1292307210747,89.4073
1292307270747,89.8308
1292307330747,89.0390
1292307390747,89.4076
1292307450747,89.3157
1292307510747,89.3974
1292307570747,89.8770
1292307630747,89.5828
1292307690747,89.6268
1292307750747,89.8425
1292307810747,89.5832
1292307870747,89.3622
1292307930747,89.8151
1292307990747,89.8334
1292308050747,90.0410
1292308110747,89.2747
1292308170747,89.6588
1292308230747,89.6510
1292308290747,89.1353
1292308350747,89.6028
1292308410747,89.9382
1292308470747,89.5736
1292308530747,89.7829
1292308590747,89.8758
1292308650747,89.8870
1292308710747,89.5883
1292308770747,90.0266
1292308830747,89.9296
1292308890747,89.1407
1292308950747,90.0190
1292309010747,89.8955
1292309070747,89.8443
1292309130747,89.9403
1292309190747,89.9588
1292309250747,89.7459
1292309310747,89.8747
1292309370747,89.6028
1292309430747,90.1898
1292309490747,90.0009
1292309550747,89.7783
1292309610747,89.9991
1292309670747,89.6780
1292309730747,89.6469
1292309790747,89.8343
1292309850747,89.6719
1292309910747,90.0212
1292309970747,90.3719
1292310030757,89.6155
1292310090757,90.5058
1292310150757,89.5659
1292310210757,90.4183
1292310270757,90.0413
1292310330757,90.0479
1292310390757,90.3386
1292310450757,90.3678
1292310510757,89.9103
1292310570757,90.2108
1292310630757,90.3069
1292310690757,90.3704
1292310750757,89.9930
1292310810757,89.9206
1292310870757,90.4239
1292310930757,90.2830
1292310990757,90.0298
1292311050757,90.3822
1292311110757,90.1243
1292311170757,90.5941
1292311230757,90.6076
1292311290757,90.5640
1292311350757,90.0921
1292311410757,90.6910
1292311470757,90.4117
1292311530757,90.3149
1292311590757,90.2782
1292311650757,90.4419
1292311710757,90.4595
1292311770757,90.6463
1292311830757,90.4751
1292311890757,90.5000
1292311950757,90.7649
1292312010757,90.7896
1292312070757,90.4937
1292312130757,90.5823
1292312190757,90.7654
1292312250757,90.1965
1292312310757,91.0937
1292312370757,90.2708
1292312430757,90.3320
1292312490757,90.5282
1292312550757,90.5473
1292312610757,90.1933
1292312670757,91.0049
1292312730757,90.5904
1292312790757,90.8635
1292312850757,90.7168
1292312910757,91.1265
1292312970757,90.5045
1292313030757,90.1929
1292313090757,91.0589
1292313150757,90.6904
1292313210757,90.7656
1292313270757,90.8724
1292313330757,91.2515
1292313390757,91.2118
1292313450757,91.1022
1292313510757,90.5697
1292313570757,91.1322
1292313630768,90.8238
1292313690768,91.2006
1292313750768,90.7104
1292313810768,90.6437
1292313870768,90.6426
1292313930768,91.4734
1292313990768,91.0831
1292314050768,90.6933
1292314110768,91.2524
1292314170768,90.8554
1292314230768,91.0980
1292314290768,90.8822
1292314350768,90.3578
1292314410768,91.1314
1292314470768,90.7511
1292314530768,90.4107
1292314590768,90.7417
1292314650768,90.9862
1292314710768,90.8302
1292314770768,90.7943
1292314830768,91.5100
1292314890768,91.2832
1292314950768,90.9224
1292315010768,90.8286
1292315070768,91.2469
1292315130768,91.1697
1292315190768,91.1208
1292315250768,90.8353
1292315310768,91.2222
1292315370768,91.0487
1292315430768,91.0196
1292315490768,90.4221
1292315550768,91.0671
1292315610768,90.9650
1292315670768,90.7972
1292315730768,91.0332
1292315790768,90.7421
1292315850768,90.6540
1292315910768,91.1179
1292315970768,90.9278
1292316030768,90.9354
1292316090768,91.1294
1292316150768,90.7975
1292316210768,90.8409
1292316270768,91.0550
1292316330768,91.2699
1292316390768,90.8418
1292316450768,91.0481
1292316510768,90.8622
1292316570768,91.0950
1292316630768,90.7006
1292316690768,91.0198
1292316750768,90.9295
1292316810768,90.9221
1292316870768,90.8345
1292316930768,90.9646
1292316990768,90.7159
1292317050768,90.5125
1292317110768,90.4382
1292317170768,90.3522
1292317230779,91.0176
1292317290779,90.7560
1292317350779,91.0106
1292317410779,90.7503
1292317470779,91.3142
1292317530779,90.7840
1292317590779,91.1193
1292317650779,90.6806
1292317710779,90.5204
1292317770779,90.9901
1292317830779,90.8927
1292317890779,91.1176
1292317950779,91.0281
1292318010779,90.6225
1292318070779,90.5759
1292318130779,91.0980
1292318190779,90.5567
1292318250779,90.6345
1292318310779,91.2596
1292318370779,90.2747
1292318430779,90.8335
1292318490779,90.6054
1292318550779,90.7152
1292318610779,91.1037
1292318670779,91.2848
1292318730779,91.1063
1292318790779,90.9469
1292318850779,90.8387
1292318910779,90.4976
1292318970779,90.6685
1292319030779,90.7176
1292319090779,90.3499
1292319150779,91.0072
1292319210779,90.9554
1292319270779,90.8236
1292319330779,90.9620
1292319390779,90.9225
1292319450779,90.3212
1292319510779,90.6148
1292319570779,90.8104
1292319630779,90.9327
1292319690779,90.6288
1292319750779,90.7922
1292319810779,90.1833
1292319870779,90.8105
1292319930779,90.4907
1292319990779,90.7529
1292320050779,90.7949
1292320110779,90.8789
1292320170779,90.6298
1292320230779,90.5041
1292320290779,91.0936
1292320350779,90.5257
1292320410779,90.5528
1292320470779,90.6403
1292320530779,91.2056
1292320590779,90.7881
1292320650779,90.6677
1292320710779,91.1217
1292320770779,90.9424
1292320830790,90.7789
1292320890790,90.5503
1292320950790,90.6842
1292321010790,90.6695
1292321070790,90.5235
1292321130790,90.6126
1292321190790,90.4368
1292321250790,90.8220
1292321310790,90.6792
1292321370790,90.8094
1292321430790,90.5800
1292321490790,90.9069
1292321550790,90.4737
1292321610790,90.7406
1292321670790,90.3452
1292321730790,90.2506
1292321790790,90.7870
1292321850790,90.5395
1292321910790,90.8665
1292321970790,90.4931
1292322030790,90.3657
1292322090790,90.2708
1292322150790,90.6401
1292322210790,90.7249
1292322270790,90.3722
1292322330790,90.7657
1292322390790,90.2055
1292322450790,90.6498
1292322510790,90.8135
1292322570790,90.5690
1292322630790,90.3170
1292322690790,90.7502
1292322750790,90.7365
1292322810790,90.5393
1292322870790,90.4223
1292322930790,91.2722
1292322990790,91.1004
1292323050790,90.1083
1292323110790,90.6532
1292323170790,91.1819
1292323230790,90.8687
1292323290790,90.9551
1292323350790,90.7898
1292323410790,90.7000
1292323470790,90.2348
1292323530790,90.7028
1292323590790,90.8793
1292323650790,90.4847
1292323710790,90.5791
1292323770790,90.9966
1292323830790,91.1347
1292323890790,91.0350
1292323950790,91.1874
1292324010790,90.1761
1292324070790,90.4781
1292324130790,90.6425
1292324190790,90.7297
1292324250790,90.6387
1292324310790,90.8393
1292324370790,90.8988
1292324430801,90.8360
1292324490801,90.9164
1292324550801,90.7139
1292324610801,91.1487
1292324670802,91.0614
1292324730802,91.3811
1292324790801,90.7463
1292324850801,90.9144
1292324910801,90.9643
1292324970801,90.6680
1292325030802,90.7408
1292325090802,90.9171
1292325150802,90.9219
1292325210802,90.0204
1292325270802,91.0069
1292325330802,91.1088
1292325390802,90.7950
1292325450801,90.5557
1292325510801,91.1471
1292325570801,91.3581
1292325630801,91.0505
1292325690801,91.0711
1292325750801,91.0801
1292325810801,91.3431
1292325870801,90.6482
1292325930801,91.1943
1292325990802,90.9621
1292326050802,91.4671
1292326110801,91.3755
1292326170801,91.2874
1292326230801,91.0707
1292326290801,91.1448
1292326350802,91.0888
1292326410802,91.0973
1292326470802,91.2160
1292326530802,91.2485
1292326590802,91.0915
1292326650802,91.5568
1292326710802,91.2466
1292326770802,90.9505
1292326830801,90.8511
1292326890801,90.8555
1292326950801,91.0740
1292327010801,90.5068
1292327070801,91.6041
1292327130801,90.9249
1292327190801,90.8067
1292327250801,91.1565
1292327310801,90.8101
1292327370802,90.8700
1292327430802,90.7938
1292327490801,90.6482
1292327550801,90.9154
1292327610801,90.9648
1292327670801,90.8969
1292327730802,91.3512
1292327790802,90.9287
1292327850802,90.9946
1292327910802,90.6811
1292327970802,91.2979
1292328030813,90.8740
1292328090813,91.1540
1292328150813,90.8434
1292328210813,90.4490
1292328270813,90.8304
1292328330813,90.8896
1292328390813,91.0113
1292328450813,91.1783
1292328510813,91.1958
1292328570813,90.6388
1292328630813,91.1459
1292328690813,90.9222
1292328750813,90.8680
1292328810813,90.9176
1292328870813,91.3931
1292328930813,91.1022
1292328990813,91.7195
1292329050813,90.9842
1292329110813,91.1637
1292329170813,91.2331
1292329230813,90.7041
1292329290813,90.8774
1292329350813,91.4945
1292329410813,90.7741
1292329470813,90.7472
1292329530813,91.0847
1292329590813,91.3385
1292329650813,90.3680
1292329710813,91.3000
1292329770813,91.0017
1292329830813,90.8737
1292329890813,92.1928
1292329950813,91.2595
1292330010813,91.1027
1292330070813,90.8551
1292330130813,91.1205
1292330190813,90.5770
1292330250813,91.4081
1292330310813,91.0199
1292330370813,91.0846
1292330430813,91.0530
1292330490813,90.9638
1292330550813,91.3249
1292330610813,91.1677
1292330670813,90.7245
1292330730813,91.2473
1292330790813,91.3227
1292330850813,90.8531
1292330910813,91.4151
1292330970813,91.6666
1292331030813,91.1207
1292331090813,90.8695
1292331150813,91.5540
1292331210813,91.3697
1292331270813,90.9390
1292331330813,90.9201
1292331390813,91.2342
1292331450813,91.2946
1292331510813,91.2071
1292331570813,91.4782
1292331630825,90.7836
1292331690825,90.5863
1292331750825,91.0353
1292331810825,91.1885
1292331870825,90.9910
1292331930825,91.4582
1292331990825,90.8931
1292332050825,91.4432
1292332110825,91.2571
1292332170825,90.7444
1292332230825,90.5422
1292332290825,91.0362
1292332350825,91.1961
1292332410825,91.0037
1292332470825,90.9906
1292332530825,91.3802
1292332590825,91.4998
1292332650825,91.1525
1292332710825,91.6200
1292332770825,91.5589
1292332830825,91.5855
1292332890825,90.8950
1292332950825,91.3839
1292333010825,90.7290
1292333070825,91.1344
1292333130825,91.1459
1292333190825,90.8846
1292333250825,90.9921
1292333310825,91.4636
1292333370825,91.1534
1292333430825,91.0358
1292333490825,91.4399
1292333550825,91.7147
1292333610825,91.6497
1292333670825,91.4211
1292333730825,91.6839
1292333790825,91.3433
1292333850825,91.6101
1292333910825,91.5642
1292333970825,91.7178
1292334030825,91.5563
1292334090825,91.5477
1292334150825,91.4730
1292334210825,91.3425
1292334270825,91.1008
1292334330825,91.3779
1292334390825,91.3661
1292334450825,91.4501
1292334510825,91.6389
1292334570825,91.3372
1292334630825,91.4865
1292334690825,90.9513
1292334750825,91.1181
1292334810825,91.4898
1292334870825,91.6097
1292334930825,91.5354
1292334990825,91.5979
1292335050825,91.7479
1292335110825,91.5794
1292335170825,91.4918
1292335230836,91.3693
1292335290836,91.7047
1292335350836,91.7345
1292335410836,91.9073
1292335470836,91.3319
1292335530836,91.7982
1292335590836,91.5539
1292335650836,91.9043
1292335710836,92.0516
1292335770836,91.2833
1292335830836,91.6843
1292335890836,91.7300
1292335950836,91.6279
1292336010836,91.4412
1292336070836,91.8564
1292336130836,91.3928
1292336190836,91.6959
1292336250836,91.8358
1292336310836,91.8152
1292336370836,91.1245
1292336430836,91.3673
1292336490836,91.7556
1292336550836,91.8725
1292336610836,91.4242
1292336670836,91.4117
1292336730836,91.8481
1292336790836,92.0151
1292336850836,91.8182
1292336910836,92.0508
1292336970836,91.9012
1292337030836,91.5948
1292337090836,91.7497
1292337150836,91.8267
1292337210836,91.7884
1292337270836,91.4296
1292337330836,91.6756
1292337390836,91.6545
1292337450836,91.5918
1292337510836,91.9197
1292337570836,91.9770
1292337630836,91.9838
1292337690836,91.9426
1292337750836,91.3574
1292337810836,91.7757
1292337870836,92.1535
1292337930836,91.4865
1292337990836,91.8834
1292338050836,92.0093
1292338110836,91.4994
1292338170836,91.7498
1292338230836,91.7021
1292338290836,91.6150
1292338350836,92.0464
1292338410836,91.6142
1292338470836,91.6185
1292338530836,91.4932
1292338590836,91.8261
1292338650836,91.7388
1292338710836,91.7593
1292338770836,91.7817
1292338830848,91.3933
1292338890848,91.6222
1292338950848,91.7484
1292339010848,91.6715
1292339070848,91.6978
1292339130848,91.4746
1292339190848,91.6947
1292339250848,91.6092
1292339310848,91.1747
1292339370848,92.2924
1292339430848,91.5826
1292339490848,91.7667
1292339550848,91.3761
1292339610848,91.6539
1292339670848,91.2413
1292339730848,91.6690
1292339790848,91.1665
1292339850848,91.5075
1292339910848,91.6395
1292339970848,91.2528
1292340030848,91.1278
1292340090848,90.9757
1292340150848,91.2692
1292340210848,91.2073
1292340270848,91.0218
1292340330848,91.0601
1292340390848,90.8767
1292340450848,90.6827
1292340510848,91.2652
1292340570848,90.4788
1292340630848,91.1557
1292340690848,90.2119
1292340750848,90.0976
1292340810848,90.3675
1292340870848,90.3117
1292340930848,90.3489
1292340990848,90.2965
1292341050848,90.7944
1292341110848,90.0429
1292341170848,89.8858
1292341230848,89.7499
1292341290848,89.8661
1292341350848,89.8220
1292341410848,89.8275
1292341470848,89.6305
1292341530848,90.3672
1292341590848,89.6649
1292341650848,89.7496
1292341710848,89.6578
1292341770848,89.5386
1292341830848,89.5443
1292341890848,89.9692
1292341950848,89.5626
1292342010848,89.3819
1292342070848,89.6268
1292342130848,89.7789
1292342190848,89.7794
1292342250848,89.4347
1292342310848,89.7007
1292342370848,90.1115
1292342430859,90.2015
1292342490859,89.8933
1292342550859,89.9863
1292342610859,90.1740
1292342670859,90.1964
1292342730859,90.2383
1292342790859,90.0371
1292342850859,89.9184
1292342910859,89.8069
1292342970859,90.0809
1292343030859,89.7876
1292343090859,89.7797
1292343150859,89.8521
1292343210859,89.6049
1292343270859,90.2284
1292343330859,90.0524
1292343390859,89.8560
1292343450859,90.2256
1292343510859,90.4264
1292343570859,90.4675
1292343630859,90.1109
1292343690859,90.6516
1292343750859,90.5535
1292343810859,90.4039
1292343870859,90.5268
1292343930859,90.4704
1292343990859,90.5996
1292344050859,90.3091
1292344110859,90.8350
1292344170859,89.9586
1292344230859,90.3606
1292344290859,90.8642
1292344350859,90.6356
1292344410859,90.7198
1292344470859,90.4485
1292344530859,90.5532
1292344590859,90.2407
1292344650859,90.6265
1292344710859,90.5114
1292344770859,90.5898
1292344830859,90.4595
1292344890859,90.4973
1292344950859,90.3567
1292345010859,90.6742
1292345070859,90.7729
1292345130859,90.8217
1292345190859,90.8131
1292345250859,90.7085
1292345310859,90.4914
1292345370859,90.8594
1292345430859,90.9862
1292345490859,90.5428
1292345550859,90.5063
1292345610859,90.1971
1292345670859,90.6710
1292345730859,90.5958
1292345790859,90.2341
1292345850859,90.6165
1292345910859,90.6170
1292345970859,90.5515
1292346030870,90.2279
1292346090870,90.3724
1292346150870,90.4812
1292346210870,90.6567
1292346270870,90.4610
1292346330870,90.6032
1292346390870,90.1153
1292346450870,90.4437
1292346510870,90.2078
1292346570870,90.1883
1292346630870,90.5216
1292346690870,90.6236
1292346750870,90.1785
1292346810870,90.3964
1292346870870,90.2893
1292346930870,90.4792
1292346990870,91.0092
1292347050870,90.5679
1292347110870,90.4647
1292347170870,90.0470
1292347230870,90.3269
1292347290870,90.4801
1292347350870,90.2297
1292347410870,89.9583
1292347470870,90.6943
1292347530870,89.6664
1292347590870,89.9122
1292347650870,90.5425
1292347710870,89.6816
1292347770870,90.1989
1292347830870,89.9993
1292347890870,90.2254
1292347950870,90.2681
1292348010870,90.3037
1292348070870,89.6242
1292348130870,90.1598
1292348190870,89.8770
1292348250870,90.2200
1292348310870,90.1323
1292348370870,89.9010
1292348430870,90.2295
1292348490870,90.0732
1292348550870,89.9808
1292348610870,90.2233
1292348670870,89.8621
1292348730870,90.2708
1292348790870,90.3492
1292348850870,90.3481
1292348910870,89.3467
1292348970870,90.0091
1292349030870,90.1027
1292349090870,90.4710
1292349150870,89.8093
1292349210870,90.1219
1292349270870,89.8234
1292349330870,89.8139
1292349390870,90.2548
1292349450870,89.9139
1292349510870,89.7964
1292349570870,89.9297
1292349630881,90.1947
1292349690881,90.1478
1292349750881,90.0280
1292349810881,90.2437
1292349870881,89.9429
1292349930881,90.2393
1292349990881,90.0146
1292350050881,89.6832
1292350110881,89.8916
1292350170881,89.7822
1292350230881,87.5023
1292350290881,90.3103
1292350350881,89.6405
1292350410881,89.9748
1292350470881,89.8745
1292350530881,89.9251
1292350590881,89.9010
1292350650881,90.1264